DW2789 Weather Reports


Display with metric or nautical units.
time (UTC)temp
F
wind
direction
speed
MPH
gust
MPH
rain 1hr
in
rain 24hr
in
rain mn
in
humidity
%
barometer
mb
20260904194000 68 43 0.0 0.0 0.00 0.04 0.01 50 1013.1
20260904192942 68 42 0.0 0.0 0.00 0.04 0.01 49 1013.2
20260904191945 69 42 0.0 0.0 0.00 0.04 0.01 48 1013.2
20260904190936 69 43 0.0 0.0 0.00 0.04 0.01 49 1013.2
20260904185942 68 42 0.0 0.0 0.00 0.04 0.01 50 1013.3
20260904184948 68 43 0.0 0.0 0.00 0.04 0.01 50 1013.3
20260904184009 67 42 0.0 1.0 0.00 0.05 0.01 51 1013.4
20260904182935 66 42 0.0 0.0 0.00 0.05 0.01 50 1013.4
20260904181938 65 42 0.0 0.0 0.01 0.05 0.01 51 1013.5
20260904180942 64 43 0.0 2.0 0.01 0.05 0.01 53 1013.5
20260904175944 64 43 0.0 6.0 0.01 0.05 0.01 55 1013.5
20260904174931 64 43 4.0 9.0 0.01 0.05 0.01 53 1013.5
20260904173954 63 42 0.0 5.0 0.01 0.06 0.01 55 1013.4
20260904172955 63 43 1.0 4.0 0.01 0.06 0.01 55 1013.4
20260904171934 62 43 0.0 2.0 0.00 0.05 0.00 57 1013.4
20260904170940 62 43 0.0 1.0 0.00 0.05 0.00 56 1013.3
20260904164940 62 43 0.0 0.0 0.00 0.05 0.00 56 1013.2
20260904163944 61 42 0.0 0.0 0.00 0.05 0.00 53 1013.0
20260904162946 61 42 0.0 0.0 0.00 0.05 0.00 63 1013.0
20260904161932 60 43 0.0 0.0 0.00 0.05 0.00 62 1013.0
20260904155933 57 42 0.0 0.0 0.00 0.05 0.00 67 1012.8
20260904154937 56 43 0.0 0.0 0.00 0.05 0.00 68 1012.8
20260904153941 55 43 0.0 8.0 0.00 0.05 0.00 69 1012.8
20260904153003 54 42 2.0 9.0 0.00 0.05 0.00 69 1012.8
20260904151950 54 43 1.0 10.0 0.00 0.05 0.00 70 1012.7
20260904150932 53 42 1.0 9.0 0.00 0.05 0.00 71 1012.8
20260904145935 52 43 1.0 12.0 0.00 0.05 0.00 72 1012.7
20260904144938 52 42 0.0 10.0 0.00 0.05 0.00 72 1012.7
20260904143947 51 43 1.0 5.0 0.00 0.05 0.00 73 1012.7
20260904142950 51 42 1.0 7.0 0.00 0.05 0.00 74 1012.5
20260904141932 51 43 0.0 8.0 0.00 0.05 0.00 74 1012.5
20260904140934 50 43 0.0 0.0 0.00 0.05 0.00 75 1012.3
20260904135943 50 43 0.0 4.0 0.00 0.05 0.00 75 1012.3
20260904135005 50 42 0.0 7.0 0.00 0.05 0.00 75 1012.2
20260904134006 50 43 0.0 9.0 0.00 0.05 0.00 75 1012.1
20260904132931 50 43 0.0 0.0 0.00 0.05 0.00 75 1012.1
20260904131937 50 42 0.0 8.0 0.00 0.05 0.00 74 1011.9
20260904131004 50 42 0.0 8.0 0.00 0.05 0.00 74 1011.8
20260904125958 50 43 0.0 0.0 0.00 0.05 0.00 74 1011.8
20260904124939 50 43 0.0 0.0 0.00 0.05 0.00 73 1011.8
20260904123943 51 42 0.0 0.0 0.00 0.05 0.00 74 1011.7
20260904122946 51 43 0.0 0.0 0.00 0.05 0.00 72 1011.6
20260904121934 51 43 0.0 0.0 0.00 0.05 0.00 70 1011.5
20260904120937 51 42 0.0 0.0 0.00 0.05 0.00 70 1011.3
20260904115941 51 42 0.0 0.0 0.00 0.05 0.00 72 1011.3
20260904114947 51 43 0.0 0.0 0.00 0.05 0.00 72 1011.1
20260904113933 51 43 0.0 0.0 0.00 0.05 0.00 73 1011.1
20260904112940 51 42 0.0 0.0 0.00 0.05 0.00 73 1011.0
20260904110936 51 43 1.0 9.0 0.00 0.05 0.00 74 1010.9
20260904105939 51 43 0.0 7.0 0.00 0.05 0.00 74 1010.9
20260904104946 51 43 0.0 0.0 0.00 0.05 0.00 74 1010.9
20260904103932 52 43 0.0 0.0 0.00 0.05 0.00 74 1010.7
20260904102008 52 43 0.0 0.0 0.00 0.05 0.00 73 1010.2
20260904100934 52 43 1.0 10.0 0.00 0.05 0.00 73 1010.1
20260904095942 52 43 2.0 11.0 0.00 0.05 0.00 73 1010.1
20260904094945 52 43 1.0 9.0 0.00 0.05 0.00 74 1010.2
20260904093948 52 42 0.0 0.0 0.00 0.05 0.00 74 1010.1
20260904093012 52 43 1.0 6.0 0.00 0.05 0.00 74 1009.9
20260904091935 52 43 0.0 6.0 0.00 0.05 0.00 74 1009.9
20260904090939 52 43 0.0 0.0 0.00 0.05 0.00 74 1009.9
20260904085942 52 43 0.0 6.0 0.00 0.05 0.00 74 1009.9
20260904084946 52 42 0.0 8.0 0.00 0.05 0.00 74 1009.8
20260904083933 52 43 2.0 12.0 0.00 0.05 0.00 74 1009.6
20260904082940 52 43 0.0 8.0 0.00 0.05 0.00 74 1009.6
20260904081945 52 43 1.0 9.0 0.00 0.05 0.00 74 1009.5
20260904080948 53 42 2.0 11.0 0.00 0.05 0.00 73 1009.5
20260904075936 53 43 0.0 12.0 0.00 0.05 0.00 73 1009.5
20260904074939 53 42 4.0 12.0 0.00 0.05 0.00 73 1009.4
20260904073942 53 43 6.0 15.0 0.00 0.05 0.00 73 1009.4
20260904072949 53 42 5.0 12.0 0.00 0.05 0.00 73 1009.4
20260904071936 53 43 6.0 12.0 0.00 0.05 0.00 73 1009.4
20260904070941 53 42 2.0 9.0 0.00 0.05 0.00 73 1009.2
20260904065942 53 42 0.0 11.0 0.00 0.05 0.00 73 1009.2
20260904064929 53 43 2.0 10.0 0.00 0.05 0.00 73 1009.2
20260904063939 53 43 2.0 8.0 0.00 0.05 0.05 74 1009.3
20260904062942 53 43 3.0 8.0 0.00 0.05 0.05 74 1009.5
20260904061945 53 42 5.0 10.0 0.00 0.05 0.05 74 1009.5
20260904061008 53 43 5.0 11.0 0.00 0.05 0.05 75 1009.6
20260904055932 53 43 1.0 9.0 0.00 0.05 0.05 74 1009.4
20260904054956 53 43 0.0 11.0 0.00 0.05 0.05 74 1009.4
20260904053941 53 43 5.0 11.0 0.00 0.05 0.05 72 1009.5
20260904053003 53 42 5.0 13.0 0.00 0.05 0.05 72 1009.4
20260904051945 53 43 4.0 12.0 0.00 0.05 0.05 74 1009.5
20260904050931 53 42 2.0 9.0 0.00 0.05 0.05 76 1009.6
20260904045937 52 43 3.0 9.0 0.00 0.05 0.05 77 1009.7
20260904043955 52 43 4.0 11.0 0.00 0.05 0.05 78 1009.5
20260904042936 53 43 5.0 11.0 0.00 0.05 0.05 77 1009.3
20260904042000 53 42 5.0 12.0 0.00 0.05 0.05 73 1009.5
20260904040947 53 42 9.0 13.0 0.00 0.05 0.05 74 1009.5
20260904035949 53 43 4.0 15.0 0.00 0.05 0.05 75 1009.6
20260904034951 54 43 5.0 16.0 0.00 0.05 0.05 74 1009.7
20260904033933 54 42 12.0 24.0 0.00 0.05 0.05 72 1009.6
20260904032939 54 41 12.0 24.0 0.00 0.05 0.05 72 1009.6
20260904031943 54 38 10.0 19.0 0.00 0.05 0.05 71 1009.2
20260904030947 55 36 4.0 15.0 0.00 0.05 0.05 75 1009.1
20260904025928 55 36 8.0 18.0 0.00 0.05 0.05 73 1009.4
20260904024938 56 36 11.0 15.0 0.00 0.05 0.05 68 1009.5
20260904023943 57 36 11.0 14.0 0.00 0.05 0.05 67 1009.5
20260904023007 58 38 4.0 11.0 0.00 0.05 0.05 63 1009.5
20260904022008 59 39 0.0 6.0 0.00 0.05 0.05 61 1009.6
20260904020933 60 39 3.0 7.0 0.00 0.05 0.05 57 1009.3
20260904015936 61 39 2.0 14.0 0.00 0.05 0.05 50 1009.1
20260904014939 62 39 7.0 13.0 0.00 0.05 0.05 54 1009.0
20260904013947 62 38 4.0 17.0 0.00 0.05 0.05 48 1008.8
20260904012934 62 39 4.0 13.0 0.00 0.05 0.05 51 1008.7
20260904011958 61 38 2.0 13.0 0.00 0.05 0.05 53 1008.7
20260904010939 61 39 10.0 12.0 0.00 0.05 0.05 59 1008.5
20260904005942 61 39 0.0 0.0 0.00 0.05 0.05 58 1008.4
20260904004945 62 39 0.0 0.0 0.00 0.05 0.05 59 1008.6
20260904004012 62 39 0.0 0.0 0.00 0.05 0.05 58 1008.6
20260904002933 62 39 0.0 0.0 0.00 0.05 0.05 60 1008.7
20260904002000 63 38 0.0 0.0 0.00 0.05 0.05 57 1008.8
20260904000940 63 38 0.0 0.0 0.00 0.05 0.05 55 1008.9
20260904000004 63 39 0.0 0.0 0.00 0.05 0.05 55 1008.8
20260903234931 63 39 0.0 0.0 0.00 0.05 0.05 57 1009.1
20260903233955 63 39 0.0 0.0 0.00 0.05 0.05 58 1009.0
20260903232935 63 38 0.0 0.0 0.00 0.05 0.05 54 1009.1
20260903231939 63 39 0.0 0.0 0.00 0.05 0.05 54 1009.2
20260903230945 64 38 0.0 0.0 0.00 0.05 0.05 54 1009.1
20260903230008 64 39 0.0 0.0 0.00 0.05 0.05 54 1009.2
20260903224950 64 39 0.0 0.0 0.00 0.05 0.05 53 1009.2
20260903223932 64 39 0.0 0.0 0.00 0.05 0.05 54 1009.2
20260903222938 65 39 0.0 0.0 0.00 0.05 0.05 53 1009.4
20260903221943 65 38 0.0 6.0 0.00 0.05 0.05 54 1009.5
20260903221005 65 39 1.0 6.0 0.01 0.05 0.05 52 1009.5
20260903215948 65 39 0.0 0.0 0.01 0.05 0.05 51 1009.2
20260903214950 66 38 0.0 0.0 0.01 0.05 0.05 51 1009.7
20260903213937 66 39 0.0 0.0 0.01 0.05 0.05 50 1009.8
20260903212940 66 38 0.0 0.0 0.01 0.05 0.05 52 1009.6
20260903211943 66 38 0.0 0.0 0.01 0.05 0.05 50 1009.5
20260903210930 66 39 0.0 5.0 0.00 0.04 0.04 51 1009.8
20260903210000 67 39 0.0 0.0 0.00 0.04 0.04 48 1010.0
20260903204942 66 39 0.0 0.0 0.00 0.04 0.04 50 1010.1
20260903203943 66 38 0.0 0.0 0.01 0.04 0.04 52 1010.1
20260903202949 65 39 0.0 0.0 0.01 0.04 0.04 52 1009.9
20260903201935 65 38 0.0 0.0 0.01 0.04 0.04 52 1010.3
20260903200959 65 39 0.0 0.0 0.01 0.04 0.04 51 1010.3
20260903195941 65 39 0.0 0.0 0.01 0.04 0.04 51 1010.5